Desert Springs, Nevada Weather observations

Data are for 10 minute period ending at time listed.
 Day   Time    Ave.   Ave.  Ave.  Vector   Max.   Total    Solar   
  of    of     Air    Rel.  Wind   Wind    Wind  Precip.   Rad.    
Year   Day     Temp.  Hum.  Speed  Dir.    Gust                    
2014   (PST)    F      %     mph   deg.    mph     in.     W/m2    
------------------------------------------------------------------- 
 354    5:00   41.0    64    8.0   264     26.0    5.82       0  
 354    6:00   41.0    64   19.0   272     27.0    5.82       0  
 354    7:00   40.0    71    7.0   246     29.0    5.82       0  
 354    8:00   41.0    65    8.0   234     21.0    5.82       1  
 354    9:00   41.0    65    9.0   274     15.0    5.82      26  
 354   10:00   43.0    63   15.0   269     25.0    5.82      40  
 354   11:00   42.0    68   15.0   280     27.0    5.82      63  
 354   12:00   44.0    61   17.0   236     27.0    5.82     146  
 354   13:00   44.0    60   17.0   261     29.0    5.82     107  
 354   14:00   45.0    61   19.0   273     27.0    5.82      91  
 354   15:00   45.0    60   15.0   258     32.0    5.82     100  
 354   16:00   45.0    61    9.0   252     25.0    5.82     191  
 354   17:00   44.0    65    5.0   199      9.0    5.82      19  
 354   18:00   44.0    68    9.0   157     15.0    5.82       0  
 354   19:00   44.0    67    4.0   190      9.0    5.82       0  
 354   20:00   43.0    69    3.0   155     11.0    5.82       0  
 354   21:00   44.0    69    3.0   145     10.0    5.82       0  
 354   22:00   43.0    71    3.0    85      8.0    5.82       0  
 354   23:00   43.0    73    6.0   156      9.0    5.82       0  
 355    0:00   44.0    71    3.0   123      8.0    5.82       0  
 355    1:00   47.0    69   17.0   268     25.0    5.82       0  
 355    2:00   48.0    68   18.0   268     39.0    5.82       0  
 355    3:00   49.0    68   32.0   275     46.0    5.82       0  
 355    4:00   48.0    70   22.0   282     54.0    5.82       0  

Return to Desert Springs, Nevada graphs page.


Western Regional Climate Center,wrcc@dri.edu